Other Surface Observations
Issued by NWS Tucson, AZ

Home | Current Version | Previous Version | Text Only | Print | Product List | Glossary On
Versions: 1 2 3 4 5 6 7 8 9 10 11 12 13 14 15 16 17 18 19 20 21 22 23 24 25 26 27 28 29 30 31 32 33 34 35 36 37 38 39 40 41 42 43 44 45 46 47 48 49 50
085
SXUS55 KTWC 232115
OSOTWC

WEATHER ROUNDUP FOR SOUTHEAST ARIZONA
NATIONAL WEATHER SERVICE TUCSON AZ
215 PM MST SAT SEP 23 2017

AZZ504>506-514-232215-
LOCATION       SKY/WX    TMP DP  RH WIND       PRES   REMARKS
TUCSON         SUNNY     84  37  18 NW6       29.77F
DAVIS-MONTHAN  MOSUNNY   86  37  17 W13       29.75F
CHILDRENS PARK N/A      N/A N/A  22 NW4               PIMA CO DEQ
ALVERNON/22ND  N/A       81 N/A N/A NW5               PIMA CO DEQ
CHERRY/GLENN   N/A      N/A N/A N/A N/A               PIMA CO DEQ
TANGERINE      N/A       80 N/A N/A W6                PIMA CO DEQ
CONTL RANCH    N/A       82  37  20 W6                PIMA CO DEQ
GRANT/1ST      N/A       81  40  23 NW4               PIMA CO DEQ
CRAYCROFT/22ND N/A       82  41  23 N/A               PIMA CO DEQ
GOLFLINKS/KOLB N/A      N/A N/A N/A N/A               PIMA CO DEQ
AJO/12TH       N/A       82  41  23 SW5               PIMA CO DEQ
FAIRGROUNDS    N/A       81 N/A N/A W9                PIMA CO DEQ
SAGUARO        N/A       85  42  22 W7G14             *SABINO CYN
SAN CARLOS     N/A       82  34  18 S11G23            *SAN CARLOS
GREEN VALLEY   N/A       84  37  19 SW11              PIMA CO DEQ
HORSE CAMP CYN N/A       75  38  26 SW9G22            *ARAVAIPA CYN
RINCON MTNS    N/A       63  38  39 SW4G13            *NR MANNING CAMP
$$

AZZ509>511-232215-
LOCATION       SKY/WX    TMP DP  RH WIND       PRES   REMARKS
SAFFORD        MOSUNNY   86  38  18 VRB7      29.72F
STRAY HORSE    N/A       57  41  55 SW9G17            *
TRAIL CABIN    N/A       67  41  38 W7G17             *N OF GRANVILLE
BLACK HILLS    NOT AVBL
DRY LAKE       N/A       64  39  39 SW6G17            *NATANES MTNS
NOON CREEK     N/A       77  36  23 SW9G19            *PINALENO MTNS
COLUMBINE      N/A       51  36  57 SW10G21           *PINALENO MTNS
GUTHRIE        N/A       68  43  41 SW17G32           *SW OF GUTHRIE
$$

AZZ502-503-513-232215-
LOCATION       SKY/WX    TMP DP  RH WIND       PRES   REMARKS
NOGALES        SUNNY     82  35  18 S17G24    29.83F
SELLS          N/A       81  31  16 NE9G14            *
SASABE         N/A       80  28  15 S10G20            *ALTAR VLY
HOPKINS        N/A       69  38  32 W8G20             *SANTA RITA MTNS
CARR CYN       N/A       75  42  31 N4G11             *W OF HEREFORD
$$

AZZ507-508-512-232215-
LOCATION       SKY/WX    TMP DP  RH WIND       PRES   REMARKS
SIERRA VISTA   SUNNY     79  35  20 SW18G24   29.86F
DOUGLAS        MOSUNNY   81  43  26 SW15G29   29.82F
EMPIRE MTNS    NOT AVBL
MULESHOE RANCH N/A       78  40  26 NW10G21           *PRESERVE
HEADQUARTERS   N/A       76  44  32 S9G22             *CHIRICAHUA MTNS
$$

.............................NOTES.............................
THIS IS AN AUTOMATED COLLECTIVE WITH MINIMAL QUALITY CONTROL.
PIMA CO DEQ SITES HAVE NONSTANDARD WIND SENSOR HEIGHTS.
PIMA CO DEQ SITES DO NOT REPORT WIND GUSTS.
* INDICATES WIND SENSORS LOCATED AT 20 FEET INSTEAD OF 33 FEET.
..............................KEY..............................
SKY/WX - SKY CONDITION/WEATHER
TMP    - TEMPERATURE IN FAHRENHEIT
DP     - DEWPOINT IN FAHRENHEIT
RH     - RELATIVE HUMIDITY IN PERCENT
WIND   - DIRECTION AND SPEED IN MILES PER HOUR (MPH)
VRB    - VARIABLE WIND DIRECTION
PRES   - MEAN SEA LEVEL PRESSURE IN INCHES OF MERCURY
         F - FALLING PRESSURE   R - RISING PRESSURE
         S - STEADY PRESSURE
VSB    - VISIBILITY IN MILES
HX     - HEAT INDEX IN FAHRENHEIT
WCI    - WIND CHILL INDEX IN FAHRENHEIT
N/A    - NOT AVAILABLE
AFB    - AIR FORCE BASE
         DAVIS-MONTHAN IS DAVIS-MONTHAN AIR FORCE BASE
CYN    - CANYON
MTNS   - MOUNTAINS
NCA    - NATIONAL CONSERVATION AREA
NR     - NEAR
VLY    - VALLEY
CONTL  - CONTINENTAL
PIMA CO DEQ - PIMA COUNTY DEPT OF ENVIRONMENTAL QUALITY



USA.gov is the U.S. government's official web portal to all federal, state and local government web resources and services.